Погода в Тепловке

Россия / Самарская область     52°16′58″N   49°47′20″E
темп.,
°C
ветер,
м/с
пор.,
м/с
влажн.,
%
обл.,
%
осадки,
мм/ч
давл.,
гПа
погр.,
м
14 августа, вс
вс1401:00+19св34570 0.0 101948
04:00+18св34660 0.0 101961
07:00+20ссв36650 0.0 1019153
10:00+26св44451 0.0 1019882
13:00+30св44345 0.0 10182141
16:00+31св45316 0.0 10172539
19:00+27всв71041100 0.0 1017563
22:00+24всв61246100 0.0 1018449
15 августа, пн
пн1501:00+20всв51247100 0.0 1019304
04:00+17св4105467 0.0 1020214
07:00+17св5105498 0.0 1021287
10:00+23св683544 0.0 1021984
13:00+27св782451 0.0 10201626
16:00+29св67235 0.0 10191920
19:00+27св59325 0.0 1018323
22:00+22св715425 0.0 1020390
16 августа, вт
вт1601:00+20св714513 0.0 1020343
04:00+18всв612560 0.0 1021284
07:00+19всв510510 0.0 1022285
10:00+26в67310 0.0 1022840
13:00+29всв55253 0.0 10221997
16:00+30всв55256 0.0 10202277
19:00+27всв48285 0.0 1020212
22:00+21всв49351 0.0 1021127
17 августа, ср
ср1701:00+19всв410454 0.0 1021168
04:00+17всв41054100 0.0 1021186
07:00+19всв5115397 0.0 1021259
10:00+26в6834100 0.0 1020676
13:00+29в5625100 0.0 10191516
16:00+31в5522100 0.0 10171748
19:00+27всв3430100 0.0 101774
22:00+23всв493597 0.0 1017164
18 августа, чт
чт1801:00+20св4943100 0.0 1017135
04:00+20всв4943100 0.0 1017166
07:00+20всв6115087 0.0 1018283
10:00+27в783267 0.0 1018872
13:00+31в662559 0.0 10182009
16:00+32всв6523100 0.0 10182391
19:00+28всв592896 0.0 1018253
22:00+22всв5124083 0.0 1019189